Weather History for K1A5 - March, 2014

Change the Weather History Date:

Saturday, March 1, 2014

  Actual Average (KTOC) Record (KTOC)
Temperature  
Mean Temperature 44 °F -  
Max Temperature 57 °F 61 °F 62 °F (2014)
Min Temperature 32 °F 37 °F 34 °F (2015)
Degree Days  
Heating Degree Days 21    
Moisture  
Dew Point 29 °F    
Average Humidity 57    
Maximum Humidity 80    
Minimum Humidity 33    
Precipitation  
Precipitation 0.00 in - - ()
Sea Level Pressure  
Sea Level Pressure 30.23 in    
Wind  
Wind Speed 1 mph (ESE)    
Max Wind Speed 7 mph    
Max Gust Speed -    
Visibility 10 miles    
Events Snow    
Averages and records for this station are not official NWS values.
T = Trace of Precipitation, MM = Missing Value Source: NWS Daily Summary

Daily Weather History Graph

Daily Weather History Graph

Search for Another Location

Airport or City:

Trip Planner

Search our weather history database for the weather conditions in past years. The results will help you decide how hot, cold, wet, or windy it might be!

Date:

Astronomy

Mar. 01, 2014 Rise Set
Actual Time 7:03 AM EST 6:29 PM EST
Civil Twilight 6:37 AM EST 6:54 PM EST
Nautical Twilight 6:08 AM EST 7:24 PM EST
Astronomical Twilight 5:39 AM EST 7:53 PM EST
Moon 6:58 AM EST (3/1) 7:12 PM EST (3/1)
Length of Visible Light 12h 16m
Length of Day
11h 25m
New Moon, 0% of the Moon is Illuminated
Mar 1
New Moon
Mar 8
First Quarter
Mar 16
Full
Mar 23
Last Quarter
Mar 30
New

Hourly Weather History & Observations

Time (EST) Temp. Windchill Dew Point Humidity Pressure Visibility Wind Dir Wind Speed Gust Speed Precip Events Conditions
12:15 AM 35.6 °F - 20.8 °F 55% 30.20 in 10.0 mi Calm Calm - N/A   Mostly Cloudy
12:35 AM 32.9 °F - 20.5 °F 60% 30.20 in 10.0 mi Calm Calm - N/A   Scattered Clouds
12:55 AM 33.1 °F - 22.1 °F 64% 30.20 in 10.0 mi Calm Calm - N/A   Mostly Cloudy
1:15 AM 32.9 °F - 24.1 °F 70% 30.21 in 10.0 mi Calm Calm - N/A   Overcast
1:35 AM 33.4 °F - 23.2 °F 66% 30.21 in 10.0 mi Calm Calm - N/A   Scattered Clouds
1:55 AM 32.2 °F - 23.2 °F 69% 30.21 in 10.0 mi Calm Calm - N/A   Clear
2:15 AM 32.5 °F - 23.4 °F 69% 30.21 in 10.0 mi Calm Calm - N/A   Mostly Cloudy
2:35 AM 33.1 °F - 24.6 °F 71% 30.20 in 10.0 mi Calm Calm - N/A   Overcast
2:50 AM 33.8 °F - 24.1 °F 68% 30.20 in 10.0 mi Calm Calm - N/A   Overcast
3:15 AM 33.4 °F - 24.6 °F 70% 30.20 in 7.0 mi Calm Calm - N/A Snow Light Snow
3:35 AM 33.8 °F - 25.2 °F 71% 30.21 in 10.0 mi Calm Calm - N/A Snow Light Snow
3:55 AM 33.8 °F - 26.1 °F 73% 30.22 in 10.0 mi Calm Calm - N/A   Overcast
4:15 AM 34.3 °F - 25.9 °F 71% 30.22 in 10.0 mi Calm Calm - N/A   Overcast
4:35 AM 34.5 °F - 26.2 °F 72% 30.23 in 10.0 mi Calm Calm - N/A   Overcast
4:55 AM 34.7 °F - 27.3 °F 74% 30.23 in 10.0 mi Calm Calm - N/A   Overcast
5:15 AM 34.7 °F - 27.5 °F 75% 30.23 in 10.0 mi Calm Calm - N/A   Overcast
5:35 AM 34.9 °F - 27.5 °F 74% 30.24 in 10.0 mi Calm Calm - N/A   Overcast
5:55 AM 35.1 °F - 28.2 °F 76% 30.25 in 10.0 mi Calm Calm - N/A   Overcast
6:15 AM 34.9 °F - 28.9 °F 79% 30.25 in 10.0 mi Calm Calm - N/A   Overcast
6:35 AM 35.1 °F - 28.6 °F 77% 30.25 in 10.0 mi Calm Calm - N/A   Overcast
6:55 AM 35.2 °F - 28.4 °F 76% 30.25 in 10.0 mi Calm Calm - N/A   Overcast
7:15 AM 35.1 °F - 29.1 °F 79% 30.26 in 10.0 mi Calm Calm - N/A   Overcast
7:35 AM 35.4 °F - 29.7 °F 80% 30.25 in 10.0 mi Calm Calm - N/A   Overcast
7:55 AM 36.0 °F - 28.9 °F 76% 30.26 in 10.0 mi Calm Calm - N/A   Overcast
8:15 AM 36.7 °F - 28.6 °F 72% 30.27 in 10.0 mi Calm Calm - N/A   Overcast
8:35 AM 37.6 °F - 28.4 °F 69% 30.28 in 10.0 mi Calm Calm - N/A   Overcast
8:55 AM 38.7 °F - 26.8 °F 62% 30.29 in 10.0 mi Calm Calm - N/A   Overcast
9:15 AM 39.4 °F - 24.8 °F 56% 30.29 in 10.0 mi Calm Calm - N/A   Overcast
9:35 AM 40.1 °F - 25.7 °F 56% 30.29 in 10.0 mi Calm Calm - N/A   Overcast
9:55 AM 41.2 °F - 25.9 °F 55% 30.29 in 10.0 mi Calm Calm - N/A   Overcast
10:15 AM 42.3 °F 40.5 °F 26.4 °F 54% 30.30 in 10.0 mi ENE 3.5 mph - N/A   Overcast
10:35 AM 43.5 °F 41.9 °F 27.7 °F 54% 30.29 in 10.0 mi NNE 3.5 mph - N/A   Overcast
10:55 AM 45.5 °F 43.2 °F 30.0 °F 55% 30.29 in 10.0 mi NE 4.6 mph - N/A   Overcast
11:15 AM 47.1 °F - 30.6 °F 53% 30.28 in 10.0 mi East 4.6 mph - N/A   Overcast
11:35 AM 48.2 °F - 30.6 °F 51% 30.28 in 10.0 mi NE 4.6 mph - N/A   Overcast
11:55 AM 49.1 °F - 31.1 °F 50% 30.27 in 10.0 mi East 4.6 mph - N/A   Overcast
12:15 PM 51.1 °F - 31.5 °F 47% 30.25 in 10.0 mi East 4.6 mph - N/A   Scattered Clouds
12:35 PM 51.1 °F - 30.2 °F 45% 30.24 in 10.0 mi NE 6.9 mph - N/A   Scattered Clouds
12:55 PM 52.7 °F - 30.2 °F 42% 30.23 in 10.0 mi NE 3.5 mph - N/A   Mostly Cloudy
1:15 PM 55.8 °F - 29.5 °F 37% 30.22 in 10.0 mi East 3.5 mph - N/A   Overcast
1:35 PM 56.1 °F - 28.2 °F 34% 30.21 in 10.0 mi NNE 5.8 mph - N/A   Overcast
1:55 PM 55.4 °F - 28.2 °F 35% 30.20 in 10.0 mi SSE 3.5 mph - N/A   Mostly Cloudy
2:15 PM 55.2 °F - 27.9 °F 35% 30.18 in 10.0 mi SE 4.6 mph - N/A   Mostly Cloudy
2:35 PM 55.9 °F - 27.5 °F 34% 30.18 in 10.0 mi SSW 3.5 mph - N/A   Overcast
2:55 PM 56.5 °F - 27.3 °F 33% 30.17 in 10.0 mi SW 3.5 mph - N/A   Overcast
3:15 PM 55.9 °F - 26.8 °F 33% 30.17 in 10.0 mi South 4.6 mph - N/A   Overcast
3:35 PM 56.5 °F - 27.7 °F 33% 30.17 in 10.0 mi Calm Calm - N/A   Overcast
3:55 PM 56.5 °F - 28.2 °F 34% 30.17 in 10.0 mi SSE 5.8 mph - N/A   Overcast
4:15 PM 55.9 °F - 28.2 °F 35% 30.18 in 10.0 mi ESE 4.6 mph - N/A   Overcast
4:35 PM 55.8 °F - 28.0 °F 35% 30.18 in 10.0 mi Calm Calm - N/A   Overcast
4:55 PM 55.8 °F - 28.6 °F 35% 30.18 in 10.0 mi Calm Calm - N/A   Overcast
5:15 PM 55.6 °F - 28.2 °F 35% 30.18 in 10.0 mi SE 4.6 mph - N/A   Overcast
5:35 PM 55.0 °F - 28.0 °F 35% 30.18 in 10.0 mi Calm Calm - N/A   Overcast
5:55 PM 54.5 °F - 28.2 °F 36% 30.18 in 10.0 mi SSE 3.5 mph - N/A   Overcast
6:15 PM 53.8 °F - 28.2 °F 37% 30.19 in 10.0 mi Calm Calm - N/A   Overcast
6:35 PM 53.4 °F - 28.4 °F 38% 30.20 in 10.0 mi Calm Calm - N/A   Overcast
6:55 PM 51.3 °F - 30.7 °F 45% 30.20 in 10.0 mi Calm Calm - N/A   Overcast
7:15 PM 49.6 °F - 32.0 °F 51% 30.20 in 10.0 mi Calm Calm - N/A   Overcast
7:35 PM 49.8 °F - 30.4 °F 47% 30.20 in 10.0 mi Calm Calm - N/A   Overcast
7:55 PM 47.5 °F - 30.6 °F 52% 30.21 in 10.0 mi Calm Calm - N/A   Mostly Cloudy
8:15 PM 44.2 °F - 31.8 °F 62% 30.22 in 10.0 mi Calm Calm - N/A   Mostly Cloudy
8:35 PM 46.0 °F - 32.4 °F 59% 30.23 in 10.0 mi Calm Calm - N/A   Overcast
8:55 PM 46.0 °F - 32.9 °F 60% 30.23 in 10.0 mi Calm Calm - N/A   Overcast
9:15 PM 46.6 °F - 33.3 °F 60% 30.24 in 10.0 mi Calm Calm - N/A   Overcast
9:35 PM 46.4 °F - 33.6 °F 61% 30.24 in 10.0 mi Calm Calm - N/A   Overcast
9:55 PM 46.2 °F - 34.0 °F 62% 30.25 in 10.0 mi Calm Calm - N/A   Overcast
10:15 PM 46.0 °F - 34.5 °F 64% 30.25 in 10.0 mi Calm Calm - N/A   Overcast
10:35 PM 46.4 °F - 34.3 °F 63% 30.26 in 10.0 mi Calm Calm - N/A   Overcast
10:55 PM 45.7 °F - 34.9 °F 66% 30.25 in 10.0 mi Calm Calm - N/A   Overcast
11:15 PM 45.5 °F - 35.6 °F 68% 30.24 in 10.0 mi Calm Calm - N/A   Overcast
11:35 PM 45.0 °F - 35.2 °F 69% 30.23 in 10.0 mi Calm Calm - N/A   Overcast
11:55 PM 44.1 °F - 35.6 °F 72% 30.23 in 10.0 mi Calm Calm - N/A   Mostly Cloudy